Change the Weather History Date:

Tuesday, June 24, 2008

  Actual Average Record
Temperature  
Mean Temperature 57 °F 62 °F  
Max Temperature 76 °F 74 °F 96 °F (1992)
Min Temperature 38 °F 49 °F 35 °F (1935)
Degree Days  
Heating Degree Days 8 4  
Month to date heating degree days 211 133  
Since 1 July heating degree days 5553 4983  
Cooling Degree Days 0 1  
Month to date cooling degree days 2 10  
Year to date cooling degree days 24 16  
Growing Degree Days 7 (Base 50)    
Moisture  
Dew Point 44 °F    
Average Humidity 62    
Maximum Humidity 93    
Minimum Humidity 31    
Precipitation  
Precipitation 0.00 in 0.03 in 0.38 in (1975)
Month to date precipitation 0.31 1.23  
Year to date precipitation 13.35 20.72  
Snow  
Snow 0.00 in - - ()
Month to date snowfall 0.0  
Since 1 June snowfall  
Since 1 July snowfall 0.0  
Snow Depth 0.00 in    
Sea Level Pressure  
Sea Level Pressure 30.16 in    
Wind  
Wind Speed 4 mph (NNW)    
Max Wind Speed 14 mph    
Max Gust Speed 16 mph    
Visibility 10 miles    
Events      
T = Trace of Precipitation, MM = Missing Value Source: NWS Daily Summary

Daily Weather History Graph

Daily Weather History Graph

Search for Another Location

Airport or City:

Trip Planner

Search our weather history database for the weather conditions in past years. The results will help you decide how hot, cold, wet, or windy it might be!

Date:

Astronomy

Jun. 24, 2008 Rise Set
Actual Time 5:23 AM PDT 9:04 PM PDT
Civil Twilight 4:45 AM PDT 9:42 PM PDT
Nautical Twilight 3:54 AM PDT 10:33 PM PDT
Astronomical Twilight 2:45 AM PDT 11:42 PM PDT
Moon 12:02 AM PDT (6/24) 11:28 AM PDT (6/24)
Length of Visible Light 16h 57m
Length of Day
15h 40m
Waning Gibbous, 68% of the Moon is Illuminated
Jun 24
Waning Gibbous
Jun 26
Last Quarter
Jul 2
New
Jul 9
First Quarter
Jul 18
Full

Hourly Weather History & Observations

Time (PDT) Temp. Windchill Dew Point Humidity Pressure Visibility Wind Dir Wind Speed Gust Speed Precip Events Conditions
12:53 AM 46.0 °F - 41.0 °F 83% 30.18 in 10.0 mi Calm Calm - N/A   Clear
1:53 AM 45.0 °F - 41.0 °F 86% 30.19 in 10.0 mi Calm Calm - N/A   Clear
2:53 AM 43.0 °F 40.3 °F 39.9 °F 89% 30.21 in 10.0 mi WNW 4.6 mph - N/A   Clear
3:53 AM 41.0 °F - 39.0 °F 93% 30.22 in 10.0 mi Calm Calm - N/A   Clear
4:53 AM 39.9 °F - 37.9 °F 93% 30.21 in 10.0 mi Calm Calm - N/A   Clear
5:53 AM 39.0 °F - 37.0 °F 93% 30.22 in 10.0 mi Calm Calm - N/A   Clear
6:53 AM 45.0 °F - 41.0 °F 86% 30.22 in 10.0 mi Calm Calm - N/A   Clear
7:53 AM 50.0 °F - 44.1 °F 80% 30.22 in 10.0 mi Calm Calm - N/A   Clear
8:53 AM 55.0 °F - 43.0 °F 64% 30.23 in 10.0 mi Calm Calm - N/A   Clear
10:53 AM 64.0 °F - 39.9 °F 41% 30.22 in 10.0 mi Calm Calm - N/A   Clear
11:53 AM 69.1 °F - 37.0 °F 31% 30.20 in 10.0 mi Variable 3.5 mph - N/A   Clear
12:53 PM 69.1 °F - 43.0 °F 39% 30.18 in 10.0 mi NNE 5.8 mph - N/A   Clear
1:53 PM 70.0 °F - 45.0 °F 41% 30.16 in 10.0 mi Calm Calm - N/A   Clear
2:53 PM 73.0 °F - 46.0 °F 38% 30.14 in 10.0 mi Calm Calm - N/A   Clear
3:53 PM 75.0 °F - 46.9 °F 37% 30.12 in 10.0 mi Variable 3.5 mph - N/A   Clear
4:53 PM 75.0 °F - 50.0 °F 41% 30.10 in 10.0 mi ENE 9.2 mph - N/A   Clear
5:53 PM 75.0 °F - 50.0 °F 41% 30.09 in 10.0 mi NE 5.8 mph - N/A   Clear
6:53 PM 71.1 °F - 50.0 °F 47% 30.07 in 10.0 mi NW 5.8 mph - N/A   Clear
7:53 PM 69.1 °F - 48.9 °F 49% 30.07 in 10.0 mi NW 10.4 mph - N/A   Clear
8:53 PM 64.9 °F - 48.9 °F 56% 30.08 in 10.0 mi NW 11.5 mph - N/A   Clear
9:53 PM 61.0 °F - 50.0 °F 67% 30.09 in 10.0 mi WNW 8.1 mph - N/A   Clear
10:53 PM 59.0 °F - 48.9 °F 69% 30.09 in 10.0 mi NW 10.4 mph - N/A   Clear
11:53 PM 55.9 °F - 48.0 °F 75% 30.10 in 10.0 mi WNW 8.1 mph - N/A   Clear